Flag for Finland Weather past 2 weeks in Kokkola, Finland

Now
50 °F

Scattered clouds.


Feels Like: 49 °F
Forecast: 51 / 55 °F
Wind: 3 mph from South

Location: Kruunupyy

Current Time: Sep 5, 2015 at 8:56:02 AM

Latest Report: Sep 5, 2015 at 8:20 AM


Visibility: N/A

Pressure: 29.56 "Hg

Humidity: 100%

Dew point: 50 °F

Location of KokkolaLocation

Historic Weather in Kokkola — Graph

°F

Kokkola temperature yesterday

Maximum temperature yesterday: 63 °F (at 4:20 PM)
Minimum temperature yesterday: 39 °F (at 12:20 AM)
Average temperature yesterday: 51 °F

Past Weeks' High & Low Weather Summary

 TemperatureHumidityPressure
High77 °F (Aug 22, 2:20 PM)100% (Aug 22, 4:50 AM)30.33 "Hg (Aug 22, 4:50 AM)
Low36 °F (Sep 2, 5:20 AM)33% (Aug 23, 2:50 PM)29.50 "Hg (Aug 28, 3:20 PM)
Average58 °F80%29.96 "Hg
* Reported Aug 21 8:20 AM — Sep 5 8:01 AM, Kokkola, Weather by CustomWeather, © 2015

Note: Actual official high and low records may vary slightly from our data, if they occured in-between our weather recording intervals... More about our weather records

Advertising

Kokkola weather history for previous 24 hours

 ConditionsComfort  
Time TempWeatherWind HumidityBarometerVisibility
8:01 AM
Sat, Sep 5
50 °FScattered clouds.5 mph100%29.56 "HgN/A
7:20 AM50 °FSprinkles. Passing clouds.7 mph100%29.56 "HgN/A
6:50 AM50 °FClear.8 mph100%29.56 "Hg10 mi
6:20 AM50 °FClear.8 mph100%29.56 "Hg10 mi
5:50 AM48 °FPassing clouds.7 mph100%29.56 "HgN/A
5:05 AM48 °FFog.5 mph100%29.59 "HgN/A
4:20 AM48 °FClear.5 mph100%29.59 "Hg10 mi
3:50 AM50 °FClear.6 mph100%29.59 "Hg10 mi
3:20 AM50 °FClear.7 mph100%29.59 "Hg10 mi
2:50 AM50 °FClear.7 mph100%29.59 "Hg10 mi
2:20 AM52 °FClear.7 mph94%29.59 "Hg10 mi
1:50 AM52 °FPassing clouds.7 mph100%29.59 "HgN/A
1:20 AM52 °FPassing clouds.6 mph100%29.62 "HgN/A
12:20 AM52 °FPassing clouds.6 mph100%29.62 "HgN/A
11:50 PM
Fri, Sep 4
50 °FClear.7 mph100%29.62 "Hg10 mi
11:20 PM52 °FClear.5 mph100%29.62 "Hg10 mi
10:50 PM54 °FPassing clouds.6 mph100%29.62 "HgN/A
10:20 PM54 °FMostly cloudy.5 mph100%29.62 "HgN/A
9:50 PM54 °FSprinkles. Partly cloudy.3 mph100%29.62 "HgN/A
9:20 PM55 °FBroken clouds.7 mph94%29.62 "HgN/A
8:50 PM55 °FThunderstorms. Broken clouds.2 mph94%29.62 "HgN/A
8:31 PM54 °FRain. Partly sunny.2 mph100%29.62 "HgN/A
8:20 PM55 °FRain. Partly sunny.3 mph94%29.62 "HgN/A
7:50 PM57 °FThunderstorms. More clouds than sun.7 mph94%29.62 "Hg5 mi
7:35 PM57 °FThunderstorms. More clouds than sun.8 mph94%29.62 "HgN/A
7:20 PM57 °FSprinkles. Partly sunny.9 mph94%29.62 "HgN/A
7:09 PM59 °FSprinkles. Partly sunny.3 mph82%29.62 "HgN/A
6:50 PM61 °FPartly sunny.1 mph83%29.65 "HgN/A
6:20 PM63 °FScattered clouds.3 mph73%29.65 "HgN/A
5:50 PM63 °FSunny.1 mph73%29.65 "Hg10 mi
5:20 PM63 °FPartly sunny.1 mph73%29.65 "HgN/A
4:50 PM61 °FPartly sunny.5 mph83%29.68 "HgN/A
4:20 PM63 °FBroken clouds.2 mph73%29.68 "HgN/A
3:50 PM61 °FPartly sunny.2 mph77%29.71 "HgN/A
3:20 PM61 °FPartly sunny.2 mph83%29.71 "HgN/A
2:50 PM59 °FBroken clouds.2 mph82%29.71 "HgN/A
2:20 PM57 °FPartly sunny.3 mph94%29.74 "Hg6 mi
1:50 PM57 °FMostly cloudy.5 mph88%29.74 "HgN/A
1:20 PM57 °FPartly sunny.5 mph88%29.74 "HgN/A
12:50 PM55 °FMore clouds than sun.7 mph94%29.74 "HgN/A
12:20 PM55 °FPartly sunny.8 mph94%29.74 "HgN/A
11:50 AM55 °FPartly sunny.5 mph94%29.74 "HgN/A
11:20 AM55 °FPartly sunny.7 mph88%29.77 "HgN/A
10:50 AM55 °FBroken clouds.6 mph88%29.77 "HgN/A
10:20 AM54 °FPartly sunny.5 mph94%29.77 "HgN/A
9:50 AM52 °FBroken clouds.6 mph100%29.77 "HgN/A
9:20 AM52 °FPartly sunny.5 mph100%29.77 "HgN/A
8:50 AM48 °FPartly sunny.2 mph100%29.77 "HgN/A
8:20 AM46 °FBroken clouds.3 mph100%29.80 "HgN/A
Weather by CustomWeather, © 2015

See weather overviewHow to use our weather pages